Погода в Ринтала

Россия / Республика Карелия     61°17′20″N   29°22′24″E
темп.,
°C
ветер,
м/с
пор.,
м/с
влажн.,
%
обл.,
%
осадки,
мм/ч
давл.,
гПа
погр.,
м
7 мая, пт
пт700:00+1зсз3695100 0.1 994636
03:000з3795100 0.1 995473
06:00+1зюз3688100 0.0 996580
09:00+2з3579100 0.0 998838
12:00+4зюз3471100 0.0 999951
15:00+5зюз2468100 0.0 1001939
18:00+6юз2467100 0.0 1002802
21:00+4ю268098 0.0 1003287
8 мая, сб
сб800:00+1ююз2697100 0.0 1004132
03:00+3ю1495100 0.0 1004221
06:00+3зюз0193100 0.0 100371
09:00+6зсз2265100 0.0 1004769
12:00+7з3357100 0.0 10041386
15:00+6ссз3567100 0.1 10061045
18:00+7ссз255163 0.1 10071467
21:00+4зюз11685 0.1 100810
9 мая, вс
вс900:00+1юз11786 0.0 101012
03:00+1з27885 0.0 1011135
06:00+1з27790 0.0 1013189
09:00+7з235385 0.0 1014526
12:00+10зюз353684 0.0 10151739
15:00+11юз5845100 0.0 10151852
18:00+10ююз5950100 0.0 10151520
21:00+7ююз41165100 0.0 1016556
10 мая, пн
пн1000:00+5ююз397699 0.0 1017262
03:00+5ю3975100 0.0 1017755
06:00+5ююв41194100 1.2 1016662
09:00+7ююз41295100 2.5 1016609
12:00+11юз498595 0.0 1018567
15:00+16юз5968100 0.0 10191008
18:00+14ююз41276100 0.0 1020629
21:00+12ююз31282100 0.0 1021330
11 мая, вт
вт1100:00+11ююз41581100 0.0 1021396
03:00+10ююз41586100 0.0 1022417
06:00+10ююз41387100 0.0 1022414
09:00+14ююз51167100 0.0 1022623
12:00+17ююз61150100 0.0 1022944
15:00+19ююз61243100 0.0 10221173
18:00+19ююз4104838 0.0 10221132
21:00+14ююз38666 0.0 1023203